Total_Precipitation_Accumulation
0.06 0.07 0.07 0.06 0.07 0.07 0.07 0.07 0.07 0.07 0.08 0.09 0.08 0.07 0.05 0.04 0.05 0.05 0.05 0.05 0.05 0.10 0.16 0.20 0.18 0.15 0.11 0.07 0.03 0.01 0.00 0.00 0.00 0.00 0.00 0.00 0.00 0.00 0.00 0.00 0.00 0.00 0.00 0.00 0.00 0.00 0.00 0.00 0.00 0.00 0.00 0.00 0.00 0.00 0.00 0.00 0.00 0.00 0.00 0.00 0.00 0.00 0.00 0.01 0.01 0.01 0.01 0.01 0.01
0.05 0.05 0.05 0.06 0.05 0.06 0.07 0.07 0.08 0.07 0.07 0.07 0.08 0.07 0.06 0.04 0.05 0.05 0.04 0.04 0.03 0.05 0.09 0.14 0.17 0.16 0.14 0.09 0.03 0.01 0.01 0.00 0.00 0.00 0.00 0.00 0.00 0.00 0.00 0.00 0.00 0.00 0.00 0.00 0.00 0.00 0.00 0.00 0.00 0.00 0.00 0.00 0.00 0.00 0.00 0.00 0.00 0.00 0.00 0.00 0.00 0.00 0.00 0.00 0.00 0.01 0.01 0.01 0.01
0.04 0.04 0.05 0.05 0.05 0.05 0.07 0.08 0.08 0.07 0.07 0.07 0.07 0.08 0.08 0.06 0.05 0.06 0.05 0.04 0.03 0.05 0.08 0.10 0.12 0.14 0.15 0.13 0.08 0.04 0.01 0.00 0.00 0.00 0.00 0.00 0.00 0.00 0.00 0.00 0.00 0.00 0.00 0.00 0.00 0.00 0.00 0.00 0.00 0.00 0.00 0.00 0.00 0.00 0.00 0.00 0.00 0.00 0.00 0.00 0.00 0.01 0.01 0.00 0.00 0.01 0.01 0.01 0.01
0.03 0.04 0.04 0.04 0.04 0.04 0.05 0.05 0.05 0.05 0.06 0.07 0.08 0.11 0.12 0.12 0.07 0.06 0.05 0.04 0.06 0.08 0.09 0.08 0.08 0.10 0.13 0.16 0.15 0.09 0.03 0.01 0.00 0.00 0.00 0.00 0.00 0.00 0.00 0.00 0.00 0.00 0.00 0.00 0.00 0.00 0.00 0.00 0.00 0.00 0.00 0.00 0.00 0.00 0.00 0.00 0.00 0.00 0.00 0.00 0.00 0.00 0.00 0.00 0.00 0.00 0.00 0.00 0.01
0.02 0.03 0.03 0.03 0.03 0.03 0.03 0.03 0.03 0.03 0.04 0.05 0.07 0.09 0.12 0.15 0.12 0.09 0.07 0.06 0.08 0.09 0.08 0.06 0.05 0.06 0.08 0.09 0.13 0.11 0.07 0.04 0.02 0.01 0.00 0.00 0.00 0.00 0.00 0.00 0.00 0.00 0.00 0.00 0.00 0.00 0.00 0.00 0.00 0.00 0.00 0.00 0.00 0.00 0.00 0.00 0.00 0.00 0.00 0.00 0.00 0.00 0.00 0.00 0.00 0.00 0.01 0.01 0.00
0.02 0.03 0.03 0.02 0.02 0.02 0.02 0.02 0.02 0.03 0.03 0.04 0.05 0.06 0.09 0.12 0.18 0.19 0.15 0.09 0.07 0.06 0.06 0.06 0.05 0.06 0.07 0.07 0.10 0.11 0.10 0.07 0.04 0.02 0.01 0.00 0.00 0.00 0.00 0.00 0.00 0.00 0.00 0.00 0.00 0.00 0.00 0.00 0.00 0.00 0.00 0.00 0.00 0.00 0.00 0.00 0.00 0.00 0.00 0.00 0.00 0.00 0.00 0.00 0.00 0.00 0.00 0.00 0.00
0.02 0.02 0.02 0.01 0.01 0.01 0.02 0.02 0.02 0.03 0.03 0.03 0.04 0.04 0.05 0.06 0.13 0.15 0.13 0.11 0.07 0.06 0.07 0.09 0.08 0.08 0.08 0.08 0.08 0.09 0.10 0.09 0.07 0.05 0.03 0.02 0.01 0.01 0.01 0.01 0.00 0.00 0.00 0.00 0.00 0.00 0.01 0.01 0.00 0.00 0.01 0.02 0.01 0.00 0.00 0.00 0.00 0.00 0.00 0.00 0.00 0.00 0.00 0.00 0.00 0.00 0.00 0.00 0.00
0.01 0.01 0.01 0.01 0.01 0.01 0.01 0.02 0.02 0.03 0.03 0.04 0.04 0.04 0.03 0.03 0.07 0.07 0.07 0.06 0.06 0.05 0.05 0.07 0.07 0.07 0.07 0.07 0.08 0.08 0.08 0.08 0.07 0.06 0.05 0.04 0.03 0.02 0.01 0.01 0.01 0.01 0.01 0.01 0.01 0.01 0.02 0.02 0.01 0.01 0.01 0.02 0.02 0.02 0.01 0.02 0.01 0.00 0.00 0.00 0.00 0.00 0.00 0.00 0.00 0.00 0.00 0.00 0.00
0.01 0.01 0.01 0.00 0.00 0.01 0.01 0.01 0.01 0.02 0.03 0.03 0.04 0.03 0.03 0.03 0.04 0.04 0.04 0.03 0.02 0.02 0.03 0.06 0.07 0.07 0.07 0.08 0.09 0.09 0.08 0.06 0.06 0.06 0.05 0.05 0.04 0.03 0.02 0.02 0.02 0.01 0.02 0.02 0.05 0.04 0.02 0.02 0.02 0.02 0.02 0.04 0.03 0.03 0.03 0.03 0.01 0.01 0.01 0.01 0.02 0.01 0.01 0.01 0.01 0.01 0.01 0.01 0.00
0.02 0.02 0.01 0.01 0.00 0.00 0.00 0.01 0.01 0.01 0.02 0.02 0.02 0.02 0.02 0.03 0.03 0.02 0.02 0.01 0.01 0.02 0.04 0.04 0.06 0.07 0.08 0.08 0.09 0.09 0.09 0.07 0.06 0.06 0.05 0.04 0.04 0.04 0.03 0.02 0.03 0.04 0.05 0.05 0.06 0.04 0.02 0.01 0.02 0.02 0.02 0.04 0.03 0.03 0.02 0.02 0.01 0.01 0.01 0.01 0.01 0.02 0.02 0.02 0.02 0.01 0.01 0.01 0.02
0.01 0.01 0.01 0.01 0.00 0.00 0.00 0.01 0.01 0.01 0.01 0.01 0.01 0.01 0.01 0.01 0.01 0.02 0.02 0.02 0.04 0.04 0.04 0.03 0.05 0.06 0.07 0.08 0.09 0.09 0.09 0.09 0.08 0.07 0.06 0.05 0.05 0.04 0.05 0.06 0.05 0.05 0.06 0.06 0.06 0.05 0.03 0.01 0.02 0.02 0.02 0.02 0.02 0.02 0.02 0.02 0.02 0.02 0.01 0.00 0.00 0.01 0.02 0.02 0.02 0.01 0.01 0.01 0.02
0.01 0.01 0.01 0.01 0.00 0.00 0.01 0.01 0.02 0.02 0.02 0.02 0.02 0.01 0.01 0.01 0.01 0.02 0.03 0.04 0.05 0.04 0.04 0.04 0.05 0.06 0.06 0.08 0.09 0.10 0.10 0.10 0.09 0.08 0.08 0.08 0.07 0.09 0.10 0.12 0.08 0.06 0.05 0.04 0.04 0.03 0.02 0.00 0.02 0.02 0.02 0.02 0.03 0.03 0.03 0.04 0.03 0.02 0.01 0.01 0.01 0.01 0.02 0.02 0.01 0.01 0.01 0.02 0.02
0.01 0.01 0.01 0.01 0.01 0.01 0.01 0.01 0.02 0.02 0.02 0.02 0.02 0.02 0.01 0.01 0.01 0.03 0.04 0.05 0.05 0.04 0.04 0.04 0.05 0.05 0.06 0.08 0.09 0.11 0.12 0.12 0.10 0.10 0.11 0.12 0.14 0.14 0.14 0.15 0.10 0.07 0.05 0.04 0.03 0.03 0.02 0.01 0.03 0.03 0.02 0.03 0.03 0.04 0.06 0.09 0.05 0.03 0.02 0.01 0.02 0.03 0.03 0.03 0.02 0.02 0.02 0.02 0.02
0.01 0.01 0.01 0.01 0.01 0.01 0.01 0.01 0.02 0.02 0.02 0.02 0.02 0.02 0.02 0.02 0.02 0.03 0.05 0.06 0.05 0.05 0.05 0.05 0.05 0.05 0.06 0.07 0.10 0.12 0.13 0.14 0.13 0.15 0.17 0.17 0.18 0.18 0.18 0.17 0.13 0.08 0.05 0.04 0.05 0.04 0.03 0.02 0.04 0.04 0.04 0.04 0.04 0.06 0.09 0.08 0.07 0.04 0.02 0.02 0.03 0.03 0.03 0.03 0.02 0.02 0.02 0.02 0.02
0.03 0.02 0.02 0.01 0.01 0.01 0.01 0.01 0.02 0.02 0.02 0.02 0.02 0.02 0.02 0.02 0.02 0.03 0.04 0.06 0.06 0.06 0.06 0.06 0.06 0.05 0.05 0.06 0.08 0.11 0.12 0.14 0.15 0.17 0.20 0.21 0.20 0.18 0.16 0.14 0.11 0.07 0.05 0.05 0.04 0.03 0.03 0.03 0.04 0.05 0.06 0.06 0.06 0.07 0.07 0.06 0.06 0.05 0.04 0.04 0.03 0.03 0.03 0.03 0.02 0.03 0.04 0.03 0.03
0.10 0.07 0.05 0.03 0.02 0.01 0.01 0.01 0.01 0.02 0.02 0.01 0.01 0.01 0.01 0.02 0.02 0.03 0.03 0.04 0.05 0.06 0.06 0.06 0.06 0.05 0.05 0.05 0.07 0.08 0.10 0.12 0.14 0.16 0.17 0.19 0.17 0.15 0.12 0.07 0.06 0.06 0.06 0.06 0.03 0.02 0.03 0.04 0.04 0.06 0.07 0.07 0.07 0.06 0.05 0.06 0.06 0.07 0.07 0.06 0.06 0.06 0.05 0.03 0.06 0.07 0.08 0.07 0.07
0.14 0.16 0.14 0.08 0.03 0.02 0.02 0.02 0.02 0.02 0.02 0.01 0.01 0.01 0.01 0.01 0.02 0.02 0.02 0.03 0.04 0.04 0.05 0.05 0.05 0.05 0.05 0.04 0.06 0.07 0.08 0.10 0.10 0.11 0.13 0.14 0.12 0.11 0.08 0.05 0.06 0.09 0.10 0.07 0.04 0.03 0.03 0.04 0.06 0.06 0.06 0.07 0.06 0.06 0.06 0.06 0.08 0.08 0.08 0.08 0.08 0.08 0.08 0.08 0.15 0.18 0.19 0.18 0.18
0.08 0.14 0.16 0.11 0.11 0.14 0.13 0.02 0.02 0.01 0.01 0.01 0.01 0.01 0.01 0.01 0.01 0.01 0.01 0.01 0.02 0.02 0.03 0.03 0.03 0.03 0.04 0.05 0.07 0.07 0.08 0.07 0.08 0.09 0.10 0.11 0.10 0.09 0.08 0.08 0.10 0.11 0.10 0.07 0.04 0.04 0.04 0.05 0.06 0.07 0.07 0.06 0.06 0.06 0.06 0.09 0.10 0.11 0.11 0.11 0.11 0.13 0.15 0.17 0.29 0.34 0.36 0.35 0.33
0.05 0.07 0.08 0.10 0.12 0.16 0.20 0.18 0.21 0.14 0.06 0.06 0.02 0.01 0.01 0.01 0.01 0.01 0.01 0.01 0.01 0.01 0.01 0.01 0.05 0.06 0.07 0.09 0.08 0.08 0.07 0.04 0.05 0.06 0.07 0.09 0.08 0.08 0.09 0.09 0.09 0.07 0.05 0.05 0.03 0.03 0.04 0.05 0.05 0.06 0.07 0.07 0.07 0.06 0.07 0.11 0.13 0.15 0.17 0.18 0.19 0.22 0.25 0.28 0.35 0.38 0.39 0.39 0.37
0.03 0.03 0.03 0.03 0.04 0.05 0.09 0.14 0.16 0.19 0.23 0.25 0.20 0.12 0.05 0.06 0.04 0.02 0.01 0.00 0.00 0.00 0.00 0.00 0.09 0.10 0.10 0.11 0.09 0.07 0.05 0.03 0.03 0.04 0.05 0.05 0.06 0.07 0.08 0.08 0.06 0.04 0.03 0.03 0.03 0.03 0.04 0.05 0.05 0.06 0.07 0.07 0.13 0.15 0.17 0.23 0.24 0.25 0.24 0.25 0.27 0.29 0.32 0.33 0.33 0.32 0.31 0.32 0.33
0.03 0.03 0.02 0.01 0.02 0.03 0.04 0.04 0.03 0.07 0.12 0.13 0.12 0.12 0.14 0.20 0.21 0.14 0.07 0.06 0.02 0.00 0.00 0.00 0.07 0.10 0.12 0.15 0.10 0.06 0.04 0.03 0.04 0.04 0.04 0.03 0.04 0.06 0.07 0.08 0.05 0.04 0.03 0.04 0.04 0.05 0.06 0.09 0.10 0.11 0.15 0.23 0.27 0.32 0.38 0.45 0.45 0.43 0.40 0.39 0.37 0.36 0.35 0.34 0.34 0.33 0.31 0.31 0.32
0.01 0.02 0.03 0.04 0.05 0.06 0.07 0.07 0.07 0.06 0.05 0.04 0.03 0.05 0.07 0.09 0.10 0.08 0.08 0.13 0.06 0.04 0.03 0.03 0.11 0.16 0.18 0.21 0.11 0.06 0.05 0.04 0.03 0.04 0.05 0.04 0.03 0.05 0.06 0.05 0.04 0.04 0.04 0.06 0.07 0.08 0.10 0.14 0.18 0.21 0.28 0.45 0.48 0.54 0.60 0.65 0.65 0.60 0.53 0.47 0.42 0.39 0.37 0.35 0.35 0.35 0.34 0.35 0.37
0.00 0.01 0.02 0.03 0.08 0.12 0.13 0.09 0.06 0.04 0.03 0.02 0.01 0.01 0.01 0.01 0.00 0.01 0.02 0.05 0.03 0.03 0.05 0.08 0.16 0.22 0.25 0.25 0.14 0.08 0.05 0.04 0.07 0.08 0.08 0.09 0.10 0.12 0.14 0.15 0.16 0.16 0.16 0.18 0.19 0.20 0.22 0.27 0.29 0.39 0.51 0.60 0.63 0.63 0.62 0.60 0.56 0.51 0.46 0.40 0.39 0.37 0.36 0.36 0.37 0.39 0.40 0.41 0.43
0.01 0.01 0.01 0.01 0.03 0.06 0.08 0.09 0.05 0.03 0.02 0.01 0.00 0.00 0.00 0.01 0.02 0.04 0.04 0.02 0.01 0.02 0.06 0.13 0.17 0.18 0.18 0.17 0.16 0.15 0.13 0.08 0.12 0.13 0.15 0.17 0.22 0.26 0.31 0.37 0.40 0.41 0.41 0.41 0.43 0.44 0.44 0.46 0.48 0.51 0.56 0.59 0.57 0.51 0.44 0.39 0.35 0.33 0.32 0.31 0.33 0.34 0.33 0.32 0.33 0.34 0.34 0.34 0.34
0.01 0.00 0.00 0.00 0.01 0.01 0.02 0.03 0.05 0.05 0.05 0.05 0.04 0.03 0.01 0.00 0.01 0.02 0.02 0.02 0.02 0.08 0.14 0.15 0.16 0.13 0.09 0.11 0.11 0.12 0.12 0.13 0.16 0.20 0.24 0.28 0.33 0.38 0.43 0.49 0.57 0.58 0.57 0.54 0.49 0.45 0.44 0.46 0.46 0.59 0.68 0.55 0.48 0.41 0.36 0.32 0.32 0.32 0.33 0.33 0.34 0.34 0.33 0.30 0.29 0.29 0.28 0.28 0.27
0.00 0.00 0.00 0.00 0.00 0.00 0.00 0.00 0.01 0.03 0.05 0.06 0.06 0.06 0.05 0.04 0.04 0.03 0.03 0.04 0.09 0.13 0.15 0.16 0.11 0.08 0.08 0.08 0.12 0.15 0.19 0.26 0.35 0.45 0.55 0.65 0.69 0.71 0.71 0.69 0.60 0.56 0.53 0.52 0.53 0.56 0.61 0.64 0.79 0.80 0.73 0.62 0.59 0.54 0.50 0.44 0.40 0.38 0.38 0.37 0.30 0.27 0.24 0.22 0.20 0.18 0.18 0.20 0.21
0.00 0.00 0.00 0.00 0.00 0.00 0.00 0.00 0.00 0.00 0.01 0.04 0.05 0.06 0.06 0.06 0.06 0.05 0.05 0.07 0.12 0.14 0.13 0.11 0.11 0.10 0.10 0.14 0.18 0.24 0.38 0.63 0.74 0.81 0.84 0.86 0.84 0.80 0.75 0.71 0.70 0.69 0.70 0.72 0.83 0.94 1.00 0.99 0.97 0.91 0.82 0.70 0.59 0.53 0.48 0.43 0.40 0.38 0.35 0.31 0.22 0.18 0.16 0.16 0.14 0.13 0.12 0.12 0.13
0.01 0.01 0.00 0.00 0.00 0.00 0.00 0.00 0.00 0.00 0.00 0.01 0.03 0.04 0.05 0.06 0.06 0.05 0.04 0.06 0.12 0.14 0.12 0.09 0.10 0.16 0.22 0.24 0.34 0.50 0.69 0.89 0.87 0.85 0.82 0.78 0.72 0.65 0.56 0.47 0.40 0.39 0.50 0.82 0.95 1.05 1.04 0.81 0.83 0.85 0.85 0.81 0.72 0.58 0.45 0.38 0.33 0.29 0.25 0.22 0.27 0.26 0.24 0.22 0.21 0.20 0.18 0.16 0.15
0.02 0.01 0.01 0.01 0.00 0.00 0.00 0.00 0.00 0.00 0.00 0.01 0.02 0.03 0.03 0.02 0.01 0.01 0.02 0.04 0.05 0.05 0.05 0.04 0.13 0.21 0.30 0.40 0.61 0.74 0.77 0.69 0.64 0.59 0.53 0.46 0.38 0.32 0.28 0.25 0.26 0.29 0.41 0.63 0.67 0.71 0.69 0.54 0.57 0.58 0.59 0.60 0.54 0.48 0.40 0.30 0.30 0.30 0.30 0.29 0.19 0.16 0.16 0.16 0.16 0.16 0.16 0.16 0.15
0.03 0.02 0.01 0.01 0.00 0.00 0.00 0.00 0.00 0.00 0.00 0.01 0.01 0.01 0.01 0.01 0.01 0.00 0.01 0.02 0.01 0.03 0.05 0.05 0.13 0.22 0.30 0.38 0.49 0.58 0.63 0.63 0.51 0.43 0.35 0.28 0.23 0.22 0.22 0.23 0.24 0.25 0.28 0.36 0.46 0.46 0.44 0.44 0.45 0.47 0.50 0.50 0.41 0.36 0.31 0.25 0.19 0.16 0.15 0.13 0.12 0.12 0.12 0.11 0.11 0.10 0.10 0.10 0.10
0.02 0.02 0.02 0.01 0.00 0.00 0.00 0.00 0.00 0.00 0.00 0.00 0.00 0.00 0.00 0.00 0.00 0.00 0.00 0.00 0.01 0.03 0.07 0.10 0.15 0.20 0.24 0.29 0.32 0.34 0.34 0.31 0.21 0.17 0.17 0.22 0.20 0.21 0.22 0.23 0.27 0.31 0.36 0.42 0.44 0.48 0.51 0.47 0.43 0.41 0.38 0.33 0.30 0.27 0.23 0.20 0.18 0.16 0.15 0.12 0.11 0.11 0.11 0.11 0.11 0.12 0.12 0.13 0.14
0.00 0.00 0.00 0.00 0.00 0.00 0.00 0.00 0.00 0.00 0.00 0.00 0.00 0.00 0.00 0.00 0.00 0.00 0.00 0.00 0.03 0.06 0.08 0.09 0.10 0.09 0.09 0.11 0.11 0.12 0.13 0.14 0.16 0.16 0.17 0.22 0.26 0.29 0.31 0.34 0.36 0.37 0.41 0.49 0.67 0.68 0.57 0.42 0.35 0.30 0.26 0.24 0.22 0.20 0.18 0.17 0.17 0.16 0.16 0.17 0.14 0.11 0.10 0.11 0.11 0.11 0.12 0.13 0.15
0.00 0.00 0.00 0.00 0.00 0.00 0.00 0.00 0.00 0.00 0.00 0.00 0.00 0.00 0.00 0.00 0.00 0.00 0.00 0.00 0.00 0.01 0.02 0.03 0.03 0.03 0.04 0.05 0.10 0.12 0.14 0.17 0.19 0.23 0.28 0.37 0.42 0.45 0.46 0.51 0.53 0.58 0.64 0.71 0.71 0.66 0.56 0.41 0.34 0.30 0.28 0.27 0.27 0.26 0.25 0.25 0.22 0.23 0.22 0.18 0.16 0.15 0.15 0.15 0.15 0.15 0.15 0.15 0.17
0.00 0.00 0.01 0.01 0.01 0.01 0.00 0.00 0.00 0.00 0.00 0.00 0.00 0.00 0.00 0.00 0.00 0.00 0.01 0.02 0.03 0.06 0.09 0.11 0.13 0.15 0.17 0.19 0.24 0.25 0.25 0.26 0.30 0.33 0.37 0.45 0.52 0.61 0.68 0.68 0.67 0.70 0.72 0.67 0.61 0.57 0.53 0.46 0.36 0.31 0.30 0.33 0.35 0.35 0.34 0.32 0.30 0.26 0.22 0.19 0.17 0.15 0.14 0.13 0.13 0.14 0.15 0.16 0.24
0.00 0.02 0.04 0.07 0.03 0.01 0.01 0.00 0.00 0.00 0.00 0.00 0.01 0.00 0.00 0.00 0.00 0.01 0.04 0.08 0.13 0.21 0.27 0.29 0.32 0.33 0.34 0.34 0.37 0.39 0.39 0.41 0.41 0.43 0.46 0.48 0.55 0.60 0.62 0.58 0.62 0.65 0.68 0.67 0.65 0.60 0.55 0.50 0.45 0.42 0.41 0.44 0.43 0.41 0.38 0.36 0.31 0.25 0.20 0.18 0.17 0.15 0.14 0.15 0.17 0.20 0.23 0.25 0.33
0.01 0.03 0.07 0.10 0.07 0.04 0.02 0.01 0.01 0.01 0.01 0.02 0.03 0.02 0.01 0.02 0.01 0.02 0.05 0.09 0.15 0.21 0.24 0.24 0.26 0.26 0.24 0.22 0.22 0.23 0.26 0.28 0.29 0.30 0.34 0.41 0.54 0.62 0.65 0.65 0.69 0.72 0.73 0.74 0.73 0.68 0.62 0.56 0.50 0.46 0.43 0.43 0.40 0.35 0.30 0.29 0.25 0.23 0.22 0.22 0.23 0.22 0.22 0.23 0.26 0.28 0.30 0.31 0.30
0.02 0.06 0.11 0.12 0.10 0.07 0.04 0.05 0.04 0.03 0.03 0.03 0.05 0.06 0.06 0.06 0.05 0.05 0.05 0.05 0.07 0.07 0.08 0.11 0.10 0.10 0.12 0.14 0.19 0.23 0.28 0.31 0.39 0.41 0.44 0.52 0.60 0.69 0.76 0.81 0.79 0.73 0.67 0.67 0.66 0.60 0.53 0.47 0.42 0.38 0.36 0.36 0.33 0.29 0.26 0.27 0.26 0.26 0.27 0.29 0.29 0.29 0.30 0.31 0.32 0.32 0.31 0.29 0.29
0.06 0.11 0.14 0.12 0.11 0.10 0.09 0.08 0.09 0.09 0.09 0.08 0.08 0.10 0.10 0.10 0.07 0.06 0.06 0.08 0.07 0.05 0.06 0.10 0.11 0.14 0.18 0.24 0.29 0.34 0.39 0.40 0.53 0.61 0.67 0.70 0.74 0.86 0.95 0.89 0.72 0.61 0.54 0.49 0.45 0.40 0.34 0.31 0.29 0.29 0.31 0.36 0.35 0.32 0.31 0.33 0.32 0.33 0.35 0.37 0.37 0.37 0.37 0.37 0.36 0.34 0.31 0.29 0.30
0.12 0.15 0.16 0.14 0.13 0.13 0.12 0.10 0.13 0.15 0.16 0.18 0.17 0.15 0.13 0.10 0.08 0.07 0.07 0.08 0.08 0.09 0.10 0.13 0.17 0.24 0.33 0.40 0.43 0.52 0.61 0.64 0.84 0.99 1.10 1.14 1.08 1.08 1.01 0.70 0.46 0.35 0.30 0.27 0.25 0.25 0.25 0.25 0.25 0.28 0.33 0.38 0.39 0.38 0.39 0.43 0.42 0.41 0.41 0.41 0.40 0.38 0.36 0.34 0.33 0.33 0.33 0.32 0.32
0.15 0.17 0.19 0.19 0.18 0.17 0.16 0.16 0.16 0.17 0.18 0.19 0.19 0.18 0.17 0.15 0.12 0.10 0.10 0.12 0.12 0.16 0.22 0.31 0.43 0.53 0.61 0.66 0.70 0.77 0.82 0.83 0.90 0.98 1.04 1.07 0.92 0.76 0.59 0.38 0.30 0.26 0.24 0.22 0.22 0.23 0.23 0.22 0.25 0.30 0.36 0.42 0.44 0.49 0.54 0.58 0.58 0.55 0.50 0.44 0.41 0.37 0.35 0.33 0.33 0.36 0.38 0.36 0.35
0.10 0.13 0.15 0.16 0.15 0.14 0.14 0.14 0.12 0.11 0.11 0.11 0.14 0.17 0.20 0.20 0.11 0.08 0.09 0.12 0.14 0.19 0.27 0.39 0.63 0.74 0.73 0.64 0.55 0.48 0.47 0.54 0.56 0.58 0.58 0.56 0.52 0.41 0.33 0.33 0.30 0.26 0.22 0.19 0.22 0.22 0.22 0.24 0.30 0.39 0.47 0.54 0.56 0.67 0.78 0.79 0.76 0.70 0.62 0.54 0.49 0.45 0.42 0.39 0.37 0.39 0.40 0.39 0.37